TimePDT,TemperatureF,Dew PointF,Humidity,Sea Level PressureIn,VisibilityMPH,Wind Direction,Wind SpeedMPH,Gust SpeedMPH,PrecipitationIn,Events,Conditions,WindDirDegrees,DateUTC
12:53 AM,54.0,51.1,90,30.09,6.0,Calm,Calm,-,N/A,,Clear,0,2013-03-13 07:53:00
1:53 AM,54.0,50.0,86,30.09,6.0,Calm,Calm,-,N/A,,Clear,0,2013-03-13 08:53:00
2:53 AM,52.0,48.9,89,30.08,6.0,Calm,Calm,-,N/A,,Clear,0,2013-03-13 09:53:00
3:30 AM,51.8,50.0,94,30.07,2.5,West,3.5,-,N/A,,Partly Cloudy,260,2013-03-13 10:30:00
3:33 AM,51.8,50.0,94,30.07,1.0,West,4.6,-,N/A,,Mist,260,2013-03-13 10:33:00
3:40 AM,51.8,51.8,100,30.07,0.5,Calm,Calm,-,N/A,Fog,Fog,0,2013-03-13 10:40:00
3:53 AM,51.1,51.1,100,30.07,0.2,Calm,Calm,-,N/A,Fog,Fog,0,2013-03-13 10:53:00
4:53 AM,52.0,51.1,97,30.06,0.2,Calm,Calm,-,N/A,Fog,Fog,0,2013-03-13 11:53:00
5:53 AM,51.1,51.1,100,30.07,0.2,Calm,Calm,-,N/A,Fog,Fog,0,2013-03-13 12:53:00
6:53 AM,51.1,51.1,100,30.08,0.2,Calm,Calm,-,N/A,Fog,Fog,0,2013-03-13 13:53:00
7:42 AM,51.8,51.8,100,30.09,1.5,West,3.5,-,N/A,,Overcast,280,2013-03-13 14:42:00
7:53 AM,52.0,51.1,97,30.09,0.5,West,3.5,-,N/A,Fog,Fog,280,2013-03-13 14:53:00
8:24 AM,53.6,51.8,94,30.09,1.2,Calm,Calm,-,N/A,,Overcast,0,2013-03-13 15:24:00
8:44 AM,53.6,51.8,94,30.10,2.5,Calm,Calm,-,N/A,,Mostly Cloudy,0,2013-03-13 15:44:00
8:51 AM,55.4,53.6,94,30.10,4.0,Calm,Calm,-,N/A,,Mostly Cloudy,0,2013-03-13 15:51:00
8:53 AM,55.9,53.1,90,30.10,4.0,Calm,Calm,-,N/A,,Scattered Clouds,0,2013-03-13 15:53:00
9:53 AM,60.1,53.1,78,30.12,10.0,WSW,3.5,-,N/A,,Clear,240,2013-03-13 16:53:00
10:53 AM,66.0,50.0,56,30.12,10.0,Variable,3.5,-,N/A,,Clear,0,2013-03-13 17:53:00
11:53 AM,69.1,48.0,47,30.12,10.0,WNW,5.8,-,N/A,,Clear,300,2013-03-13 18:53:00
12:53 PM,72.0,46.0,40,30.09,10.0,WNW,4.6,-,N/A,,Clear,290,2013-03-13 19:53:00
1:53 PM,69.1,52.0,54,30.07,10.0,West,9.2,-,N/A,,Clear,260,2013-03-13 20:53:00
2:53 PM,69.1,51.1,53,30.05,10.0,WSW,8.1,-,N/A,,Clear,250,2013-03-13 21:53:00
3:53 PM,66.0,50.0,56,30.05,10.0,WNW,9.2,-,N/A,,Clear,290,2013-03-13 22:53:00
4:53 PM,64.0,51.1,63,30.04,10.0,WSW,8.1,-,N/A,,Clear,250,2013-03-13 23:53:00
5:53 PM,64.9,51.1,61,30.02,10.0,West,8.1,-,N/A,,Clear,260,2013-03-14 00:53:00
6:53 PM,62.1,52.0,70,30.04,10.0,West,3.5,-,N/A,,Clear,280,2013-03-14 01:53:00
7:53 PM,59.0,52.0,78,30.04,10.0,Calm,Calm,-,N/A,,Clear,0,2013-03-14 02:53:00
8:53 PM,57.9,53.1,84,30.06,10.0,West,4.6,-,N/A,,Clear,260,2013-03-14 03:53:00
9:53 PM,57.0,53.1,87,30.09,10.0,WSW,4.6,-,N/A,,Clear,250,2013-03-14 04:53:00
10:24 PM,55.4,53.6,94,30.09,7.0,West,5.8,-,N/A,,Scattered Clouds,260,2013-03-14 05:24:00
10:41 PM,55.4,53.6,94,30.09,7.0,West,6.9,-,N/A,,Mostly Cloudy,260,2013-03-14 05:41:00
10:53 PM,55.0,53.1,93,30.09,8.0,West,4.6,-,N/A,,Overcast,280,2013-03-14 05:53:00
11:53 PM,54.0,53.1,97,30.09,6.0,Calm,Calm,-,N/A,,Overcast,0,2013-03-14 06:53:00